Temp
20 20 20 19 19 19 18 18 18 18 18 18 17 18 18 17 17 18 17 17 17 17 17 16 16 15 14 14 13 13 12 12 11 11 11 11 11 10 10 9 8 8 9
20 20 20 19 19 19 19 19 19 18 18 18 18 17 18 18 17 18 17 17 18 17 17 16 16 15 14 14 13 13 12 11 11 11 10 10 10 10 9 9 8 8 9
21 20 20 20 19 19 19 19 19 18 18 18 18 18 18 18 18 18 17 17 17 17 17 16 16 15 15 14 13 13 12 11 11 10 10 9 10 9 9 8 8 8 8
21 20 20 20 20 20 20 19 19 19 19 19 19 18 18 18 18 18 17 17 17 17 17 16 16 16 15 14 14 13 12 11 11 10 9 9 8 8 8 7 8 8 8
20 21 21 21 21 20 20 20 19 19 19 19 19 19 19 18 18 18 18 17 17 17 17 16 16 16 15 14 14 13 12 11 10 9 8 7 7 7 6 6 6 7 8
18 19 20 21 21 21 20 20 20 19 19 19 19 19 19 19 19 18 18 17 17 17 17 16 16 16 15 14 13 12 12 11 10 9 8 6 7 6 7 6 6 6 6
18 18 19 19 20 20 21 21 20 20 20 19 19 19 19 19 19 19 18 17 17 17 17 16 16 16 15 14 14 13 12 11 10 9 8 7 7 7 6 6 5 5 5
18 18 18 19 19 20 20 20 19 19 20 19 19 19 19 19 19 19 18 17 17 17 16 16 16 16 15 14 14 13 12 11 10 10 9 8 7 7 6 5 5 5 5
16 17 18 17 17 18 19 20 20 19 19 19 19 19 19 19 19 19 18 17 16 16 16 16 15 15 15 14 13 12 11 11 10 9 8 8 7 7 6 5 5 4 4
15 16 16 17 17 17 18 18 19 19 19 18 19 19 19 19 18 19 18 17 16 16 16 15 15 15 15 14 13 12 11 10 10 8 8 7 7 6 5 4 4 3 3
15 15 16 16 17 17 17 17 17 17 18 19 19 19 18 18 18 18 18 17 16 16 15 15 15 15 15 14 13 12 11 9 9 7 7 6 6 5 5 4 4 3 2
13 15 15 16 16 16 16 16 16 16 16 16 16 18 18 19 19 18 18 17 16 16 16 16 15 15 15 14 12 11 10 9 8 7 6 6 5 5 4 4 3 3 2
13 14 15 15 16 16 16 16 15 15 15 15 15 16 17 17 17 17 17 17 16 15 15 15 15 15 13 12 10 10 9 8 8 7 6 5 5 4 4 4 3 2 2
12 13 14 14 15 15 16 16 16 16 16 15 15 16 16 16 16 16 17 16 15 12 12 12 13 13 12 10 9 8 8 8 7 7 6 4 4 4 3 3 2 2 1
11 13 13 14 14 14 15 16 16 17 16 16 16 15 15 15 16 16 15 15 15 14 10 11 11 10 9 9 8 8 7 7 6 6 5 4 4 4 3 3 2 1 1
9 12 12 13 13 14 14 15 16 17 17 17 16 16 16 16 15 15 14 13 12 12 10 10 10 10 10 9 9 8 7 7 6 5 4 4 4 3 2 2 1 0 -2
6 9 11 11 12 13 14 14 15 17 17 17 17 16 16 15 14 13 13 11 10 9 9 9 10 10 10 10 9 7 7 7 6 5 4 4 3 2 2 0 -0 -2 -3
7 7 9 10 10 12 13 13 13 14 16 16 17 16 16 15 14 12 11 9 7 6 7 7 9 10 10 9 8 7 6 6 5 5 4 3 3 2 1 -0 -1 -2 -4
7 6 6 8 8 9 11 11 13 13 15 16 16 16 16 15 14 11 9 10 9 8 6 5 8 9 9 9 8 7 6 6 5 5 4 3 2 2 1 -0 -1 -2 -3
5 7 7 7 8 9 9 11 11 13 14 15 15 16 15 14 13 12 10 8 7 8 7 5 7 9 9 8 7 7 6 5 5 4 3 2 2 1 0 -1 -2 -3 -5
4 5 6 5 7 8 9 10 10 11 12 14 15 14 14 12 12 12 11 10 7 5 5 6 8 8 8 7 7 6 5 5 4 3 2 2 1 0 -1 -2 -3 -4 -5
4 4 5 5 5 7 8 8 9 9 10 12 12 13 13 12 10 9 9 8 6 4 4 6 8 8 7 7 6 5 4 4 3 3 2 1 1 -0 -1 -2 -3 -4 -6
3 4 5 5 5 6 7 8 8 9 8 9 11 10 11 11 9 8 7 7 7 7 6 6 7 6 6 5 4 4 3 3 3 2 1 0 -0 -1 -2 -2 -3 -5 -6
3 3 4 4 4 4 6 8 7 8 9 8 8 10 10 9 8 7 6 7 7 6 6 5 5 5 4 4 3 2 2 1 1 -0 -1 -1 -2 -2 -3 -3 -4 -5 -6
2 3 3 4 3 3 5 6 6 6 7 7 6 7 8 7 6 5 5 5 5 5 5 5 4 3 2 2 2 1 0 -0 -1 -1 -2 -2 -2 -3 -4 -4 -5 -5 -5
1 2 3 2 3 3 3 6 6 6 7 7 5 5 6 5 4 4 4 4 4 4 3 3 2 1 1 0 0 0 -0 -1 -2 -2 -3 -3 -4 -4 -4 -5 -5 -5 -6
Height
1469 1472 1475 1477 1481 1484 1487 1490 1492 1496 1499 1501 1503 1506 1508 1510 1512 1513 1514 1515 1516 1517 1517 1518 1519 1519 1519 1519 1519 1519 1519 1518 1516 1514 1512 1510 1508 1506 1503 1499 1494 1491 1487
1464 1466 1467 1471 1473 1475 1478 1482 1485 1488 1491 1494 1496 1499 1501 1503 1505 1506 1508 1509 1510 1511 1512 1512 1513 1514 1514 1514 1513 1513 1513 1512 1511 1509 1508 1506 1503 1501 1498 1494 1490 1486 1484
1457 1459 1460 1463 1464 1467 1471 1474 1477 1480 1483 1485 1488 1490 1492 1495 1497 1499 1501 1503 1503 1505 1505 1506 1507 1507 1508 1508 1508 1507 1506 1506 1505 1504 1503 1501 1498 1496 1493 1490 1486 1482 1479
1448 1449 1450 1453 1456 1459 1463 1465 1468 1471 1474 1476 1478 1480 1483 1487 1489 1491 1494 1495 1497 1498 1499 1500 1501 1501 1502 1502 1502 1502 1501 1500 1499 1498 1497 1495 1493 1491 1488 1485 1482 1479 1475
1440 1440 1442 1445 1447 1450 1453 1456 1459 1461 1464 1467 1469 1472 1474 1476 1479 1481 1485 1487 1489 1491 1492 1493 1493 1494 1495 1495 1495 1495 1495 1494 1493 1492 1491 1489 1487 1485 1483 1480 1476 1474 1471
1434 1433 1435 1436 1438 1439 1442 1445 1448 1450 1454 1457 1457 1460 1462 1465 1468 1473 1477 1479 1481 1483 1484 1485 1486 1487 1487 1487 1488 1488 1488 1487 1486 1485 1484 1483 1482 1480 1478 1476 1472 1470 1465
1429 1428 1427 1427 1427 1429 1433 1435 1435 1438 1443 1444 1446 1448 1450 1454 1459 1463 1467 1470 1472 1474 1476 1477 1477 1478 1479 1480 1480 1481 1480 1480 1479 1479 1478 1478 1476 1474 1472 1470 1468 1465 1462
1423 1422 1421 1420 1419 1420 1421 1422 1426 1429 1431 1432 1435 1437 1441 1443 1448 1453 1457 1460 1461 1464 1466 1467 1468 1470 1471 1472 1472 1472 1473 1472 1472 1472 1472 1472 1470 1469 1467 1466 1463 1461 1458
1420 1417 1415 1413 1412 1412 1410 1412 1414 1416 1418 1420 1424 1426 1428 1432 1437 1441 1447 1449 1450 1452 1455 1456 1458 1460 1461 1464 1464 1464 1465 1465 1465 1465 1466 1465 1464 1463 1462 1460 1458 1456 1453
1417 1413 1410 1407 1405 1403 1402 1402 1404 1405 1406 1409 1410 1412 1416 1419 1423 1427 1433 1435 1436 1439 1442 1444 1448 1450 1452 1455 1456 1456 1456 1457 1458 1458 1459 1458 1458 1456 1455 1455 1454 1452 1449
1414 1409 1406 1402 1398 1396 1394 1394 1395 1395 1395 1396 1398 1401 1404 1406 1410 1413 1418 1422 1422 1427 1428 1431 1434 1439 1442 1445 1447 1448 1449 1451 1451 1452 1452 1451 1451 1450 1449 1449 1448 1447 1444
1411 1405 1401 1397 1393 1390 1387 1386 1386 1387 1386 1386 1387 1387 1388 1391 1395 1397 1401 1405 1409 1412 1413 1418 1423 1429 1432 1436 1439 1440 1442 1444 1444 1445 1445 1445 1444 1443 1443 1442 1442 1441 1439
1407 1402 1398 1394 1391 1386 1382 1380 1379 1378 1378 1378 1377 1377 1377 1379 1381 1384 1386 1391 1397 1399 1403 1406 1412 1421 1424 1427 1429 1432 1434 1436 1437 1437 1438 1438 1437 1437 1437 1437 1436 1435 1433
1403 1398 1395 1391 1388 1384 1380 1376 1374 1372 1371 1370 1370 1369 1369 1370 1370 1372 1374 1378 1383 1389 1395 1395 1404 1411 1414 1417 1420 1423 1424 1426 1428 1430 1431 1431 1431 1431 1431 1431 1430 1429 1427
1397 1393 1390 1387 1383 1380 1377 1373 1369 1367 1365 1364 1362 1362 1362 1361 1362 1365 1366 1367 1370 1375 1383 1385 1392 1396 1400 1404 1409 1412 1415 1417 1420 1422 1423 1424 1424 1425 1425 1424 1424 1424 1422
1388 1386 1383 1380 1377 1374 1371 1367 1364 1362 1359 1357 1356 1355 1354 1354 1354 1355 1357 1358 1361 1366 1370 1371 1378 1383 1388 1393 1398 1402 1405 1409 1412 1414 1416 1417 1417 1418 1418 1418 1418 1418 1417
1381 1377 1375 1372 1369 1367 1365 1362 1357 1354 1352 1350 1349 1348 1347 1347 1347 1348 1349 1350 1352 1356 1360 1362 1367 1372 1378 1383 1388 1393 1396 1400 1404 1406 1408 1410 1411 1412 1412 1413 1413 1412 1411
1370 1367 1366 1363 1360 1358 1356 1354 1352 1348 1344 1343 1342 1341 1340 1339 1339 1340 1343 1345 1343 1344 1350 1351 1356 1362 1369 1374 1379 1384 1388 1392 1395 1398 1400 1402 1403 1405 1407 1407 1407 1406 1406
1360 1357 1356 1355 1352 1349 1346 1344 1342 1340 1337 1334 1334 1332 1332 1331 1332 1332 1333 1333 1332 1335 1342 1344 1348 1353 1359 1365 1371 1376 1380 1383 1387 1390 1393 1395 1396 1398 1399 1400 1401 1400 1399
1349 1345 1342 1341 1340 1338 1335 1333 1332 1330 1326 1324 1324 1325 1324 1324 1323 1323 1323 1326 1326 1326 1330 1333 1340 1346 1352 1358 1363 1367 1371 1375 1379 1382 1385 1387 1389 1391 1393 1394 1394 1395 1395
1339 1336 1332 1329 1328 1327 1325 1323 1321 1318 1315 1314 1314 1315 1315 1316 1316 1315 1315 1317 1319 1321 1324 1326 1332 1337 1344 1350 1355 1360 1364 1368 1372 1375 1378 1381 1383 1385 1387 1388 1389 1390 1390
1326 1324 1321 1317 1316 1315 1313 1312 1307 1306 1305 1304 1304 1303 1304 1305 1307 1308 1308 1309 1313 1317 1319 1323 1328 1334 1339 1344 1349 1353 1357 1361 1365 1368 1371 1374 1377 1379 1381 1382 1382 1382 1382
1314 1310 1307 1304 1302 1301 1298 1297 1296 1296 1295 1293 1293 1293 1293 1294 1297 1299 1301 1303 1305 1309 1313 1319 1324 1329 1333 1338 1343 1348 1352 1356 1360 1364 1366 1369 1371 1372 1375 1376 1376 1376 1377
1299 1296 1294 1291 1290 1288 1285 1282 1285 1285 1284 1282 1281 1281 1283 1285 1288 1291 1295 1298 1301 1304 1309 1315 1319 1324 1329 1333 1337 1342 1347 1350 1354 1357 1361 1363 1365 1367 1370 1371 1372 1373 1372
1285 1284 1282 1280 1279 1278 1276 1273 1274 1274 1273 1272 1270 1269 1273 1277 1279 1285 1289 1293 1296 1298 1303 1309 1314 1319 1324 1329 1334 1338 1342 1346 1348 1353 1355 1358 1360 1362 1364 1364 1366 1366 1367
1271 1269 1268 1268 1268 1268 1266 1260 1259 1260 1258 1258 1264 1266 1264 1269 1273 1278 1284 1288 1290 1295 1300 1305 1310 1316 1320 1325 1329 1333 1337 1340 1344 1347 1350 1352 1354 1355 1357 1358 1359 1360 1359
Wind_Speed
38 39 40 40 41 41 42 41 41 40 38 37 35 32 30 27 25 24 23 22 21 19 18 17 16 16 15 15 15 15 15 16 19 18 19 21 19 20 21 22 23 22 23
36 37 41 41 42 43 43 42 42 42 41 39 38 36 34 31 29 28 27 26 24 22 20 19 18 18 17 17 16 16 16 17 19 21 19 20 20 20 22 23 22 22 21
33 37 40 42 44 43 43 43 43 42 42 42 41 40 38 35 33 31 30 29 27 25 23 22 19 19 18 18 17 17 17 18 19 21 21 20 21 21 22 22 21 21 20
30 35 40 42 44 43 42 43 43 43 43 44 45 44 42 39 37 35 34 32 30 28 26 24 22 21 19 19 19 18 19 19 20 21 20 19 18 19 22 20 21 20 21
27 32 36 39 42 44 44 44 44 44 44 45 46 45 45 44 42 40 38 36 34 32 29 27 25 23 21 22 21 20 19 19 20 20 18 17 17 18 18 22 21 22 21
25 29 32 36 40 44 45 45 45 46 46 46 48 48 49 48 46 43 41 39 37 35 33 30 28 26 25 24 22 21 20 20 20 19 17 17 17 18 21 20 21 23 20
26 26 30 35 39 42 44 46 49 48 46 49 50 51 51 51 48 46 45 43 41 39 37 35 32 30 27 26 24 23 22 22 21 20 19 18 19 20 20 21 20 20 21
24 26 27 30 36 39 42 46 48 49 50 51 51 52 52 53 50 49 47 47 46 44 42 39 36 33 30 28 26 25 24 23 22 21 21 20 22 21 21 20 20 22 21
23 21 24 28 31 35 40 43 45 48 51 52 52 53 53 53 52 50 49 50 52 50 47 44 40 37 34 29 28 27 26 25 23 21 21 21 22 22 21 20 20 20 22
26 24 22 25 29 31 34 36 40 43 45 47 51 52 52 52 52 51 51 53 56 55 53 49 44 41 37 31 30 28 28 25 23 21 22 22 21 21 20 18 18 19 18
29 27 25 24 26 28 30 31 32 37 40 43 45 45 47 49 51 52 51 54 58 58 59 54 51 45 41 36 31 30 27 23 22 22 22 21 20 21 20 18 18 18 17
35 29 26 24 22 23 25 27 30 32 35 38 40 43 45 45 47 50 52 53 56 58 61 59 54 47 41 36 32 30 27 25 24 22 22 21 21 20 19 18 18 18 19
39 35 29 25 22 19 20 22 25 28 32 35 36 39 42 44 45 46 48 50 51 55 58 60 55 45 40 36 32 30 27 26 25 24 22 21 20 19 18 18 17 18 19
40 37 34 30 26 22 18 17 19 22 25 29 33 37 38 39 41 42 44 45 44 47 52 57 51 42 39 37 34 31 31 29 26 24 22 20 20 19 18 17 17 18 19
43 38 36 34 31 29 24 19 18 17 19 22 24 27 30 34 36 34 35 39 43 46 50 54 47 43 42 40 36 34 33 30 28 25 23 22 20 19 18 18 17 17 18
44 42 38 36 34 33 33 29 23 20 20 19 20 23 25 27 28 28 28 28 31 38 48 54 51 49 47 44 41 37 33 30 28 26 24 22 20 19 17 17 16 15 14
38 44 42 39 36 35 36 35 33 27 25 24 23 23 24 25 25 26 25 23 25 32 41 51 54 53 49 46 41 37 33 30 28 27 24 22 20 19 18 16 14 13 12
45 44 42 42 39 37 36 36 36 34 30 29 25 25 26 25 25 25 24 20 29 38 37 47 53 52 49 46 41 36 32 30 29 27 25 23 21 18 17 16 14 12 12
46 41 36 43 44 43 40 38 37 36 34 33 32 30 29 28 27 25 26 31 35 39 40 43 49 50 48 44 39 34 31 30 28 26 25 23 20 19 18 16 15 15 14
43 44 43 41 41 42 43 42 41 39 37 36 35 35 33 29 28 30 33 33 35 38 40 47 48 45 43 39 37 33 32 30 28 27 25 23 21 20 18 16 15 13 11
40 42 42 39 39 40 41 44 44 41 40 40 39 38 37 32 31 32 33 36 37 39 38 46 47 45 39 37 34 33 31 28 27 26 24 22 21 20 17 16 14 13 13
39 41 41 38 36 41 42 41 39 41 40 40 41 40 37 32 31 32 32 33 35 34 36 40 41 37 35 33 32 31 30 28 27 24 22 21 20 19 18 16 14 14 12
39 40 39 42 40 41 41 41 41 41 42 38 37 36 35 32 31 32 31 31 32 34 32 29 29 31 31 30 29 27 25 24 21 20 21 19 20 19 18 16 14 12 11
37 39 41 40 40 39 40 40 41 40 39 38 35 33 32 29 30 32 31 29 28 27 27 27 27 28 28 28 26 24 23 22 20 19 19 18 20 18 18 17 15 14 13
34 36 37 37 35 37 38 34 34 34 31 30 30 29 27 25 26 29 30 28 25 25 27 27 27 27 25 23 23 21 19 18 16 19 19 19 19 19 20 18 17 17 17
37 40 40 37 37 38 34 28 27 28 26 26 28 27 23 23 24 26 28 26 25 26 27 26 25 24 23 21 20 18 17 17 19 18 18 19 19 20 21 22 21 21 20
Wind_Direction
235 236 235 235 234 234 234 232 230 229 228 229 230 232 233 233 234 234 231 231 231 232 234 237 241 245 251 255 259 262 267 270 275 290 296 304 312 317 322 325 326 328 325
241 240 238 236 235 235 235 235 234 232 231 231 233 233 234 233 233 233 231 230 231 232 235 237 240 244 248 254 259 263 266 271 274 285 290 296 307 314 319 324 329 328 329
246 244 242 239 237 237 237 237 237 235 233 233 233 234 234 234 234 234 233 232 232 233 235 239 240 245 248 253 258 262 267 269 275 279 285 291 303 311 316 323 324 326 329
250 247 244 241 240 240 239 239 239 238 236 235 235 235 235 235 234 234 234 233 233 233 235 239 241 246 249 252 256 260 264 269 273 276 280 288 297 303 309 318 320 321 324
253 249 249 247 242 240 239 240 241 240 238 238 237 237 237 236 234 233 233 233 234 235 236 239 242 246 249 250 253 257 261 265 267 269 274 280 288 298 301 307 311 317 321
267 255 251 248 246 243 240 239 240 240 240 239 238 238 238 238 237 235 234 235 236 237 237 239 242 244 247 249 250 253 260 263 263 264 269 271 283 287 300 301 308 315 323
277 270 259 250 246 246 245 243 242 241 241 240 240 239 240 241 239 238 235 235 237 238 239 240 241 244 246 248 251 254 257 260 260 263 266 272 282 292 296 298 303 311 312
291 277 271 262 257 252 248 246 245 245 243 242 243 243 243 243 242 241 237 235 238 239 239 240 241 244 246 247 250 253 256 260 262 264 269 275 282 289 291 291 298 303 307
326 302 280 270 266 261 256 252 249 246 245 245 245 245 245 245 245 243 238 235 237 239 240 239 239 242 245 245 247 250 253 255 259 263 269 276 281 284 287 292 299 305 310
330 321 304 282 273 269 267 260 254 253 253 251 249 248 248 248 247 245 241 238 236 237 238 238 239 241 244 243 245 247 249 252 257 261 266 271 276 281 285 288 291 295 299
329 321 315 304 288 277 269 264 259 254 251 250 252 253 253 251 248 247 244 240 240 238 238 238 238 238 242 243 244 245 249 250 253 257 262 265 271 274 280 282 286 291 291
330 323 319 310 301 290 276 268 261 257 254 252 251 249 248 248 247 247 245 242 242 241 241 241 240 239 241 242 240 240 243 244 248 251 255 260 264 269 272 278 285 289 290
326 325 319 316 309 301 290 279 268 261 257 254 253 253 252 251 248 246 246 245 241 241 242 243 242 240 238 236 235 235 236 238 243 247 250 255 260 264 269 277 283 285 289
316 318 318 312 309 306 302 295 284 274 268 264 261 261 260 259 256 251 247 244 240 240 236 241 241 237 233 232 229 230 232 237 240 243 244 246 253 258 265 272 278 283 287
305 308 311 310 308 302 297 294 293 290 283 277 273 270 267 265 265 265 262 255 247 236 228 232 231 223 220 221 224 227 230 233 234 237 238 242 249 254 260 267 273 277 283
303 300 301 303 302 300 297 291 286 287 286 282 279 276 274 271 268 263 255 255 252 245 228 228 224 222 222 223 225 225 227 230 233 235 237 240 244 249 254 263 267 274 276
296 296 293 294 295 295 292 292 286 282 282 283 286 284 278 275 268 261 252 246 243 242 234 231 226 224 224 226 226 225 228 230 233 234 236 238 241 245 252 256 260 264 267
297 294 291 285 287 288 291 288 287 282 279 282 282 285 286 279 269 257 248 239 229 230 229 225 226 226 226 227 225 224 224 227 229 231 233 235 238 242 247 250 253 255 262
290 291 291 291 288 289 286 286 282 280 276 276 280 283 285 282 272 254 240 236 236 229 220 221 227 226 226 226 224 223 225 227 228 230 231 232 235 240 243 247 251 257 264
285 285 287 288 283 282 282 281 280 276 274 272 273 275 279 276 264 253 243 237 236 235 224 219 224 226 226 224 222 223 223 224 226 227 228 231 234 238 241 246 249 253 259
274 282 282 278 279 276 278 276 276 277 274 270 268 269 272 273 268 260 252 243 231 235 229 225 224 224 222 220 221 222 221 224 224 225 226 230 234 237 241 244 247 255 259
268 274 278 275 275 281 279 280 279 277 273 272 271 267 266 269 260 254 249 242 230 227 228 226 227 225 221 221 220 219 220 221 221 223 227 230 235 240 242 244 251 260 256
272 274 278 278 277 277 276 276 279 277 276 271 268 265 266 262 252 246 240 235 231 229 228 226 223 218 216 215 215 218 221 222 224 225 229 232 237 240 242 247 251 251 245
271 271 272 271 271 267 271 273 280 279 276 275 263 262 259 255 247 242 235 232 230 227 221 219 217 213 211 209 210 211 210 214 218 225 232 235 241 242 240 244 246 247 248
271 269 270 272 269 267 271 268 271 267 267 267 264 254 252 244 239 233 227 224 221 213 210 210 207 204 205 206 205 206 209 215 231 241 237 239 241 241 245 247 245 249 253
277 274 272 271 269 272 268 272 280 279 278 280 262 246 231 234 225 223 215 212 207 201 200 198 197 198 198 197 200 212 223 232 237 234 236 239 242 247 254 255 259 263 265